contact:dominique.lefevre@mio.osupytheas.fr, maurice.libes@osupytheas.fr, didier.mallarino@osupytheas.fr
Project:EMSO http://www.emso-fr.org/EMSO-France
Depth: 2436.0 m
Title:EMSO Ligure Ouest : Data MII capteur AQUADOPP
Date,Latitude,Longitude,X_East,Y_North,Z_Up,Amplitude_X,Amplitude_Y,Amplitude_Z,Batterie,SoundSpeed,Heading,Pitch,Roll,Pressure,TIS,Speed,Direction
, degrees North, degrees East, m.s-1, m.s-1,m.s-1, 1, 1, 1, Volt, m.s-1, degree, degree, degree, dbar, degree_C, m.s-1, degree
2021-05-12T00:04:03,42.805,6.029,-0.058,-0.02,-0.017,102.0,101.0,100.0,13.4,1505.2,327.9,-0.8,1.8,2470.446,13.28,0.061,251.0
2021-05-12T00:07:03,42.805,6.029,-0.029,-0.05,-0.013,102.0,102.0,101.0,13.4,1505.2,326.8,-0.8,1.8,2470.438,13.28,0.057,210.1
2021-05-12T00:10:03,42.805,6.029,-0.04,-0.062,-0.05,103.0,101.0,98.0,13.4,1505.2,326.9,-0.7,1.8,2470.372,13.28,0.073,212.8
2021-05-12T00:13:03,42.805,6.029,-0.052,-0.018,-0.022,101.0,102.0,101.0,13.3,1505.2,324.0,-0.8,1.8,2470.456,13.28,0.055,250.9
2021-05-12T00:16:03,42.805,6.029,-0.052,-0.012,-0.018,102.0,100.0,100.0,13.3,1505.2,326.6,-0.7,1.8,2470.431,13.28,0.053,257.0
2021-05-12T00:19:03,42.805,6.029,-0.04,-0.034,-0.026,101.0,100.0,101.0,13.3,1505.2,325.4,-0.8,1.8,2470.414,13.28,0.052,229.6
2021-05-12T00:22:03,42.805,6.029,-0.027,-0.056,-0.022,101.0,101.0,101.0,13.4,1505.2,325.1,-0.7,1.8,2470.43,13.28,0.062,205.7
2021-05-12T00:25:03,42.805,6.029,-0.023,-0.047,-0.034,101.0,100.0,101.0,13.4,1505.2,326.4,-0.7,1.8,2470.425,13.28,0.052,206.1
2021-05-12T00:28:03,42.805,6.029,-0.039,-0.035,0.002,102.0,100.0,100.0,13.4,1505.2,324.8,-0.7,1.8,2470.4,13.28,0.052,228.1
2021-05-12T00:31:03,42.805,6.029,-0.047,-0.035,-0.044,101.0,101.0,100.0,13.4,1505.2,325.7,-0.7,1.8,2470.426,13.28,0.058,233.3
2021-05-12T00:34:03,42.805,6.029,-0.044,-0.039,-0.021,101.0,102.0,100.0,13.4,1505.2,326.9,-0.7,1.9,2470.438,13.28,0.058,228.4
2021-05-12T00:37:03,42.805,6.029,-0.06,-0.044,-0.012,101.0,101.0,100.0,13.4,1505.2,328.3,-0.8,1.8,2470.45,13.28,0.074,233.7
2021-05-12T00:40:03,42.805,6.029,-0.065,-0.027,-0.031,101.0,101.0,99.0,13.4,1505.2,326.4,-0.7,1.8,2470.406,13.28,0.07,247.4
2021-05-12T00:43:03,42.805,6.029,-0.055,-0.015,-0.009,101.0,101.0,99.0,13.4,1505.2,328.2,-0.8,1.8,2470.389,13.28,0.057,254.7
2021-05-12T00:46:03,42.805,6.029,-0.047,-0.046,-0.026,101.0,101.0,100.0,13.3,1505.2,325.5,-0.7,1.8,2470.426,13.28,0.065,225.6
2021-05-12T00:49:03,42.805,6.029,-0.06,-0.01,-0.027,101.0,101.0,101.0,13.4,1505.2,325.2,-0.7,1.8,2470.378,13.28,0.06,260.5
2021-05-12T00:52:03,42.805,6.029,-0.053,-0.021,-0.001,102.0,101.0,99.0,13.4,1505.2,327.4,-0.7,1.8,2470.423,13.28,0.057,248.4
2021-05-12T00:55:03,42.805,6.029,-0.071,-0.035,-0.015,102.0,102.0,100.0,13.4,1505.2,325.4,-0.8,1.9,2470.434,13.28,0.079,243.8
2021-05-12T00:58:03,42.805,6.029,-0.047,-0.044,-0.025,101.0,101.0,99.0,13.3,1505.2,325.4,-0.8,1.8,2470.416,13.28,0.064,226.9
2021-05-12T01:04:03,42.805,6.029,-0.041,-0.066,-0.042,101.0,101.0,100.0,13.4,1505.2,326.8,-0.8,1.9,2470.398,13.28,0.077,211.9
2021-05-12T01:07:03,42.805,6.029,-0.023,-0.031,-0.025,101.0,101.0,100.0,13.4,1505.2,324.4,-0.7,1.8,2470.403,13.28,0.038,216.6
2021-05-12T01:10:03,42.805,6.029,-0.059,-0.043,-0.026,101.0,101.0,100.0,13.4,1505.2,325.2,-0.8,1.9,2470.415,13.28,0.073,233.9
2021-05-12T01:13:03,42.805,6.029,-0.06,-0.044,-0.029,101.0,101.0,100.0,13.3,1505.2,325.0,-0.7,1.8,2470.418,13.28,0.074,233.7
2021-05-12T01:16:03,42.805,6.029,-0.019,-0.028,-0.017,101.0,101.0,100.0,13.4,1505.2,328.0,-0.7,1.8,2470.424,13.28,0.033,214.2
2021-05-12T01:19:03,42.805,6.029,-0.037,-0.016,-0.003,101.0,102.0,101.0,13.4,1505.2,324.6,-0.8,1.8,2470.409,13.28,0.04,246.6
2021-05-12T01:22:03,42.805,6.029,-0.06,-0.031,-0.034,102.0,101.0,100.0,13.4,1505.2,327.8,-0.8,1.8,2470.377,13.28,0.067,242.7
2021-05-12T01:25:03,42.805,6.029,-0.047,-0.033,0.002,101.0,100.0,100.0,13.4,1505.2,326.9,-0.8,1.8,2470.414,13.28,0.057,234.9
2021-05-12T01:28:03,42.805,6.029,-0.059,-0.036,-0.019,101.0,101.0,101.0,13.4,1505.2,326.0,-0.7,1.8,2470.386,13.28,0.069,238.6
2021-05-12T01:31:03,42.805,6.029,-0.05,-0.041,-0.045,101.0,100.0,100.0,13.3,1505.2,328.0,-0.8,1.8,2470.376,13.28,0.064,230.7
2021-05-12T01:34:03,42.805,6.029,-0.042,-0.045,-0.022,101.0,101.0,100.0,13.4,1505.2,326.9,-0.8,1.8,2470.389,13.28,0.061,223.0
2021-05-12T01:37:03,42.805,6.029,-0.065,-0.035,-0.024,102.0,101.0,99.0,13.4,1505.2,327.7,-0.7,1.8,2470.406,13.28,0.073,241.7
2021-05-12T01:40:03,42.805,6.029,-0.028,-0.036,-0.011,100.0,101.0,100.0,13.3,1505.2,328.5,-0.8,1.8,2470.402,13.28,0.045,217.9
2021-05-12T01:43:03,42.805,6.029,-0.046,-0.027,-0.008,101.0,100.0,101.0,13.3,1505.2,326.4,-0.7,1.8,2470.395,13.28,0.053,239.6
2021-05-12T01:46:03,42.805,6.029,-0.072,-0.03,-0.033,101.0,102.0,100.0,13.4,1505.2,327.4,-0.8,1.8,2470.423,13.28,0.077,247.4
2021-05-12T01:49:03,42.805,6.029,-0.032,-0.033,-0.036,101.0,100.0,99.0,13.4,1505.2,327.7,-0.8,1.8,2470.404,13.28,0.045,224.1
2021-05-12T01:52:03,42.805,6.029,-0.049,-0.01,-0.024,100.0,99.0,101.0,13.4,1505.2,328.6,-0.8,1.8,2470.389,13.28,0.05,258.5
2021-05-12T01:55:03,42.805,6.029,-0.04,-0.042,-0.02,101.0,100.0,100.0,13.4,1505.2,327.9,-0.7,1.8,2470.427,13.28,0.057,223.6
2021-05-12T01:58:03,42.805,6.029,-0.042,-0.023,0.0,102.0,101.0,100.0,13.4,1505.2,327.5,-0.8,1.9,2470.387,13.28,0.047,241.3
2021-05-12T02:04:03,42.805,6.029,-0.053,-0.029,-0.007,100.0,102.0,101.0,13.4,1505.2,328.4,-0.8,1.8,2470.436,13.28,0.06,241.3
2021-05-12T02:07:03,42.805,6.029,-0.036,-0.032,-0.049,101.0,102.0,100.0,13.4,1505.2,327.4,-0.8,1.8,2470.412,13.28,0.048,228.4
2021-05-12T02:10:03,42.805,6.029,-0.044,-0.037,-0.032,103.0,100.0,99.0,13.4,1505.2,327.8,-0.8,1.9,2470.37,13.28,0.057,229.9
2021-05-12T02:13:03,42.805,6.029,-0.039,-0.03,-0.04,102.0,100.0,100.0,13.3,1505.2,327.0,-0.7,1.8,2470.398,13.28,0.049,232.4
2021-05-12T02:16:03,42.805,6.029,-0.05,-0.016,-0.037,101.0,101.0,99.0,13.4,1505.2,325.8,-0.8,1.8,2470.39,13.28,0.052,252.3
2021-05-12T02:19:03,42.805,6.029,-0.043,-0.033,-0.001,101.0,101.0,99.0,13.4,1505.2,325.8,-0.8,1.8,2470.417,13.28,0.054,232.5
2021-05-12T02:22:03,42.805,6.029,-0.047,-0.044,-0.02,101.0,101.0,100.0,13.4,1505.2,327.2,-0.7,1.8,2470.449,13.28,0.064,226.9
2021-05-12T02:25:03,42.805,6.029,-0.042,-0.019,-0.013,100.0,102.0,99.0,13.4,1505.2,328.6,-0.7,1.8,2470.395,13.28,0.046,245.7
2021-05-12T02:28:03,42.805,6.029,-0.055,-0.026,-0.004,101.0,100.0,99.0,13.4,1505.2,327.8,-0.8,1.8,2470.397,13.28,0.06,244.7
2021-05-12T02:31:03,42.805,6.029,-0.063,-0.035,-0.023,101.0,101.0,101.0,13.4,1505.2,329.3,-0.8,1.8,2470.429,13.28,0.072,240.9
2021-05-12T02:34:03,42.805,6.029,-0.065,-0.037,-0.039,104.0,100.0,99.0,13.4,1505.2,327.8,-0.7,1.8,2470.365,13.28,0.074,240.3
2021-05-12T02:37:03,42.805,6.029,-0.053,-0.046,-0.037,101.0,101.0,100.0,13.4,1505.2,328.3,-0.8,1.8,2470.375,13.28,0.07,229.0
2021-05-12T02:40:03,42.805,6.029,-0.082,-0.019,-0.008,100.0,100.0,100.0,13.4,1505.2,327.7,-0.8,1.9,2470.397,13.28,0.084,257.0
2021-05-12T02:43:03,42.805,6.029,-0.061,-0.031,-0.024,101.0,101.0,100.0,13.4,1505.2,328.3,-0.8,1.8,2470.418,13.28,0.068,243.1
2021-05-12T02:46:03,42.805,6.029,-0.04,-0.036,-0.032,102.0,100.0,100.0,13.4,1505.2,325.5,-0.8,1.8,2470.389,13.28,0.053,228.0
2021-05-12T02:49:03,42.805,6.029,-0.039,-0.046,-0.022,101.0,100.0,100.0,13.3,1505.2,328.5,-0.7,1.8,2470.373,13.28,0.06,220.3
2021-05-12T02:52:03,42.805,6.029,-0.04,-0.044,-0.018,100.0,101.0,100.0,13.4,1505.2,328.8,-0.8,1.8,2470.377,13.28,0.059,222.3
2021-05-12T02:55:03,42.805,6.029,-0.036,-0.052,-0.013,100.0,102.0,100.0,13.4,1505.2,329.1,-0.8,1.8,2470.379,13.28,0.063,214.7
2021-05-12T02:58:03,42.805,6.029,-0.053,-0.053,-0.011,100.0,99.0,101.0,13.4,1505.2,328.1,-0.7,1.8,2470.345,13.28,0.074,225.0
2021-05-12T03:04:03,42.805,6.029,-0.055,-0.025,-0.014,102.0,102.0,100.0,13.4,1505.2,329.4,-0.7,1.8,2470.416,13.28,0.06,245.6
2021-05-12T03:07:03,42.805,6.029,-0.047,-0.026,0.003,102.0,100.0,99.0,13.4,1505.2,328.5,-0.8,1.8,2470.419,13.28,0.053,241.1
2021-05-12T03:10:03,42.805,6.029,-0.039,-0.04,-0.004,102.0,101.0,100.0,13.4,1505.2,324.8,-0.8,1.8,2470.378,13.28,0.055,224.3
2021-05-12T03:13:03,42.805,6.029,-0.032,-0.053,-0.05,101.0,102.0,101.0,13.4,1505.2,329.1,-0.8,1.8,2470.364,13.28,0.061,211.1
2021-05-12T03:16:03,42.805,6.029,-0.043,-0.035,-0.025,102.0,101.0,101.0,13.4,1505.2,329.1,-0.8,1.8,2470.394,13.28,0.055,230.9
2021-05-12T03:19:03,42.805,6.029,-0.057,-0.025,-0.023,103.0,100.0,100.0,13.3,1505.2,328.7,-0.7,1.8,2470.385,13.28,0.062,246.3
2021-05-12T03:22:03,42.805,6.029,-0.053,-0.054,-0.047,101.0,100.0,100.0,13.4,1505.2,329.1,-0.7,1.8,2470.38,13.28,0.075,224.5
2021-05-12T03:25:03,42.805,6.029,-0.051,-0.016,-0.015,102.0,102.0,101.0,13.4,1505.2,329.1,-0.7,1.8,2470.419,13.28,0.053,252.6
2021-05-12T03:28:03,42.805,6.029,-0.068,-0.042,-0.049,102.0,100.0,100.0,13.4,1505.2,328.1,-0.7,1.9,2470.371,13.28,0.079,238.3
2021-05-12T03:31:03,42.805,6.029,-0.062,-0.032,-0.004,102.0,101.0,99.0,13.4,1505.2,325.0,-0.7,1.8,2470.417,13.28,0.069,242.7
2021-05-12T03:34:03,42.805,6.029,-0.037,-0.027,-0.021,102.0,101.0,100.0,13.4,1505.2,325.4,-0.8,1.8,2470.405,13.28,0.045,233.9
2021-05-12T03:37:03,42.805,6.029,-0.053,-0.037,-0.021,102.0,100.0,100.0,13.4,1505.2,324.7,-0.8,1.8,2470.379,13.28,0.064,235.1
2021-05-12T03:40:03,42.805,6.029,-0.064,-0.043,-0.031,101.0,99.0,100.0,13.4,1505.2,325.9,-0.8,1.8,2470.404,13.28,0.077,236.1
2021-05-12T03:43:03,42.805,6.029,-0.064,-0.019,-0.008,101.0,101.0,100.0,13.3,1505.2,329.1,-0.7,1.8,2470.429,13.28,0.066,253.5
2021-05-12T03:46:03,42.805,6.029,-0.083,-0.028,-0.016,100.0,101.0,100.0,13.4,1505.2,324.4,-0.7,1.8,2470.433,13.28,0.087,251.4
2021-05-12T03:49:03,42.805,6.029,-0.048,-0.017,-0.041,102.0,101.0,100.0,13.4,1505.2,328.0,-0.8,1.8,2470.391,13.28,0.05,250.5
2021-05-12T03:52:03,42.805,6.029,-0.048,-0.005,0.004,101.0,103.0,98.0,13.3,1505.2,325.3,-0.7,1.8,2470.433,13.28,0.048,264.1
2021-05-12T03:55:03,42.805,6.029,-0.047,-0.005,0.003,101.0,101.0,100.0,13.3,1505.2,327.9,-0.8,1.8,2470.445,13.28,0.047,263.9
2021-05-12T03:58:03,42.805,6.029,-0.047,-0.036,-0.049,101.0,100.0,102.0,13.3,1505.2,325.5,-0.8,1.8,2470.433,13.28,0.059,232.5
2021-05-12T04:04:03,42.805,6.029,-0.059,-0.015,-0.016,101.0,101.0,101.0,13.3,1505.2,328.4,-0.8,1.8,2470.439,13.28,0.06,255.7
2021-05-12T04:07:03,42.805,6.029,-0.052,-0.027,-0.04,101.0,100.0,99.0,13.4,1505.2,325.9,-0.8,1.8,2470.456,13.28,0.058,242.6
2021-05-12T04:10:03,42.805,6.029,-0.047,-0.031,-0.004,102.0,101.0,100.0,13.3,1505.2,326.0,-0.7,1.8,2470.413,13.28,0.056,236.6
2021-05-12T04:13:03,42.805,6.029,-0.042,-0.029,-0.022,101.0,103.0,101.0,13.3,1505.2,329.0,-0.7,1.8,2470.403,13.28,0.051,235.4
2021-05-12T04:16:03,42.805,6.029,-0.072,-0.034,-0.05,101.0,100.0,101.0,13.4,1505.2,325.7,-0.8,1.8,2470.424,13.28,0.079,244.7
2021-05-12T04:19:03,42.805,6.029,-0.053,-0.026,-0.029,102.0,100.0,101.0,13.4,1505.2,327.3,-0.7,1.9,2470.408,13.28,0.059,243.9
2021-05-12T04:22:03,42.805,6.029,-0.039,-0.031,-0.013,103.0,100.0,100.0,13.4,1505.2,325.8,-0.7,1.8,2470.43,13.28,0.049,231.5
2021-05-12T04:25:03,42.805,6.029,-0.067,-0.038,-0.035,103.0,99.0,100.0,13.4,1505.2,328.5,-0.8,1.8,2470.429,13.28,0.077,240.4
2021-05-12T04:28:03,42.805,6.029,-0.071,-0.03,-0.04,102.0,102.0,99.0,13.4,1505.2,328.8,-0.8,1.8,2470.428,13.28,0.077,247.1
2021-05-12T04:31:03,42.805,6.029,-0.05,-0.023,-0.016,101.0,101.0,100.0,13.3,1505.2,328.7,-0.7,1.8,2470.411,13.28,0.055,245.3
2021-05-12T04:34:03,42.805,6.029,-0.05,-0.021,-0.023,102.0,102.0,100.0,13.4,1505.2,325.8,-0.7,1.9,2470.442,13.28,0.054,247.2
2021-05-12T04:37:03,42.805,6.029,-0.058,-0.031,-0.045,101.0,103.0,100.0,13.3,1505.2,325.6,-0.7,1.8,2470.436,13.28,0.065,241.9
2021-05-12T04:40:03,42.805,6.029,-0.046,-0.035,-0.015,101.0,101.0,99.0,13.3,1505.2,327.5,-0.7,1.8,2470.442,13.28,0.057,232.7
2021-05-12T04:43:03,42.805,6.029,-0.037,-0.047,-0.015,102.0,102.0,99.0,13.3,1505.2,327.8,-0.8,1.8,2470.484,13.28,0.059,218.2
2021-05-12T04:46:03,42.805,6.029,-0.055,-0.025,-0.022,102.0,101.0,101.0,13.4,1505.2,327.2,-0.8,1.8,2470.45,13.28,0.06,245.6
2021-05-12T04:49:03,42.805,6.029,-0.048,-0.038,-0.023,103.0,101.0,100.0,13.3,1505.2,325.9,-0.8,1.8,2470.483,13.28,0.061,231.6
2021-05-12T04:52:03,42.805,6.029,-0.07,-0.025,-0.021,102.0,100.0,100.0,13.4,1505.2,327.5,-0.7,1.8,2470.453,13.28,0.074,250.4
2021-05-12T04:55:03,42.805,6.029,-0.062,-0.02,-0.043,101.0,100.0,100.0,13.3,1505.2,329.4,-0.8,1.8,2470.447,13.28,0.065,252.1
2021-05-12T04:58:03,42.805,6.029,-0.046,-0.037,-0.043,101.0,99.0,101.0,13.4,1505.2,326.0,-0.8,1.8,2470.432,13.28,0.059,231.2
2021-05-12T05:04:03,42.805,6.029,-0.059,-0.02,-0.035,101.0,100.0,100.0,13.3,1505.2,326.4,-0.8,1.8,2470.48,13.28,0.062,251.3
2021-05-12T05:07:03,42.805,6.029,-0.048,-0.014,0.0,101.0,101.0,100.0,13.4,1505.2,326.8,-0.8,1.8,2470.455,13.28,0.05,253.7
2021-05-12T05:10:03,42.805,6.029,-0.045,-0.03,-0.042,102.0,101.0,100.0,13.4,1505.2,328.1,-0.8,1.8,2470.458,13.28,0.054,236.3
2021-05-12T05:13:03,42.805,6.029,-0.031,-0.031,-0.027,101.0,100.0,101.0,13.3,1505.2,329.4,-0.8,1.8,2470.469,13.28,0.043,225.0
2021-05-12T05:16:03,42.805,6.029,-0.087,-0.036,-0.023,101.0,102.0,100.0,13.4,1505.2,327.8,-0.8,1.8,2470.479,13.28,0.094,247.5
2021-05-12T05:19:03,42.805,6.029,-0.06,-0.005,-0.033,100.0,102.0,100.0,13.4,1505.2,329.2,-0.8,1.8,2470.546,13.28,0.06,265.2
2021-05-12T05:22:03,42.805,6.029,-0.064,-0.011,-0.033,101.0,101.0,100.0,13.4,1505.2,327.8,-0.7,1.8,2470.481,13.28,0.064,260.2
2021-05-12T05:25:03,42.805,6.029,-0.058,-0.02,-0.015,101.0,101.0,100.0,13.4,1505.2,326.3,-0.8,1.8,2470.5,13.28,0.061,251.0
2021-05-12T05:28:03,42.805,6.029,-0.081,-0.024,-0.025,100.0,101.0,101.0,13.4,1505.2,326.4,-0.8,1.8,2470.482,13.28,0.084,253.5
2021-05-12T05:31:03,42.805,6.029,-0.043,-0.018,-0.053,100.0,103.0,99.0,13.4,1505.2,328.2,-0.8,1.8,2470.509,13.28,0.046,247.3
2021-05-12T05:34:03,42.805,6.029,-0.046,-0.038,-0.014,101.0,103.0,99.0,13.4,1505.2,327.0,-0.7,1.8,2470.493,13.28,0.059,230.4
2021-05-12T05:37:03,42.805,6.029,-0.057,-0.013,-0.015,99.0,102.0,100.0,13.4,1505.2,329.2,-0.7,1.8,2470.504,13.28,0.058,257.2
2021-05-12T05:40:03,42.805,6.029,-0.042,-0.027,-0.031,103.0,101.0,100.0,13.4,1505.2,327.6,-0.8,1.9,2470.465,13.28,0.049,237.3
2021-05-12T05:43:03,42.805,6.029,-0.066,-0.026,-0.039,101.0,101.0,100.0,13.4,1505.2,324.6,-0.8,1.8,2470.472,13.28,0.07,248.5
2021-05-12T05:46:03,42.805,6.029,-0.05,-0.02,-0.02,100.0,100.0,100.0,13.4,1505.2,327.0,-0.8,1.8,2470.482,13.28,0.053,248.2
2021-05-12T05:49:03,42.805,6.029,-0.065,0.0,-0.041,101.0,100.0,101.0,13.4,1505.2,327.5,-0.8,1.8,2470.476,13.28,0.064,270.0
2021-05-12T05:52:03,42.805,6.029,-0.068,-0.011,-0.015,102.0,100.0,99.0,13.4,1505.2,328.5,-0.8,1.9,2470.47,13.28,0.068,260.8
2021-05-12T05:55:03,42.805,6.029,-0.062,-0.019,-0.044,101.0,100.0,99.0,13.4,1505.2,324.0,-0.7,1.8,2470.506,13.28,0.064,253.0
2021-05-12T05:58:03,42.805,6.029,-0.048,-0.031,-0.024,101.0,101.0,100.0,13.3,1505.2,327.6,-0.8,1.8,2470.492,13.28,0.057,237.1
2021-05-12T06:04:03,42.805,6.029,-0.04,-0.029,0.004,102.0,101.0,100.0,13.4,1505.2,326.4,-0.8,1.8,2470.522,13.28,0.049,234.1
2021-05-12T06:07:03,42.805,6.029,-0.06,-0.026,-0.024,101.0,101.0,100.0,13.4,1505.2,325.1,-0.7,1.8,2470.511,13.28,0.065,246.6
2021-05-12T06:10:03,42.805,6.029,-0.043,-0.027,-0.048,100.0,100.0,99.0,13.4,1505.2,328.8,-0.7,1.8,2470.519,13.28,0.05,237.9
2021-05-12T06:13:03,42.805,6.029,-0.046,-0.022,-0.032,103.0,100.0,100.0,13.3,1505.2,327.6,-0.8,1.8,2470.512,13.28,0.05,244.4
2021-05-12T06:16:03,42.805,6.029,-0.056,-0.007,-0.01,101.0,100.0,100.0,13.4,1505.2,329.0,-0.7,1.8,2470.526,13.28,0.056,262.9
2021-05-12T06:19:03,42.805,6.029,-0.052,-0.016,-0.016,101.0,99.0,99.0,13.4,1505.2,327.1,-0.7,1.8,2470.514,13.28,0.054,252.9
2021-05-12T06:22:03,42.805,6.029,-0.042,-0.024,-0.022,100.0,101.0,99.0,13.4,1505.2,325.5,-0.8,1.8,2470.534,13.28,0.048,240.3
2021-05-12T06:25:03,42.805,6.029,-0.053,-0.028,-0.04,102.0,102.0,99.0,13.4,1505.2,329.3,-0.8,1.8,2470.557,13.28,0.059,242.1
2021-05-12T06:28:03,42.805,6.029,-0.059,-0.018,-0.007,104.0,102.0,102.0,13.3,1505.2,324.2,-0.8,1.8,2470.503,13.28,0.061,253.0
2021-05-12T06:31:03,42.805,6.029,-0.034,-0.017,-0.023,102.0,100.0,99.0,13.4,1505.2,327.9,-0.7,1.8,2470.5,13.28,0.038,243.4
2021-05-12T06:34:03,42.805,6.029,-0.066,-0.02,-0.046,99.0,101.0,100.0,13.4,1505.2,325.4,-0.7,1.8,2470.531,13.28,0.068,253.1
2021-05-12T06:37:03,42.805,6.029,-0.063,-0.029,-0.051,101.0,100.0,99.0,13.4,1505.2,328.1,-0.7,1.8,2470.506,13.28,0.069,245.3
2021-05-12T06:40:03,42.805,6.029,-0.048,-0.019,-0.017,101.0,100.0,100.0,13.4,1505.2,324.3,-0.8,1.8,2470.485,13.28,0.051,248.4
2021-05-12T06:43:03,42.805,6.029,-0.059,-0.041,-0.045,101.0,100.0,100.0,13.4,1505.2,328.8,-0.8,1.9,2470.515,13.28,0.071,235.2
2021-05-12T06:46:03,42.805,6.029,-0.034,-0.034,-0.01,101.0,101.0,100.0,13.4,1505.2,327.6,-0.8,1.9,2470.557,13.28,0.048,225.0
2021-05-12T06:49:03,42.805,6.029,-0.055,-0.037,-0.033,101.0,101.0,99.0,13.4,1505.2,325.3,-0.7,1.8,2470.543,13.28,0.066,236.1
2021-05-12T06:52:03,42.805,6.029,-0.016,-0.038,-0.031,100.0,101.0,99.0,13.4,1505.2,325.1,-0.7,1.8,2470.516,13.28,0.041,202.8
2021-05-12T06:55:03,42.805,6.029,-0.047,-0.032,-0.025,101.0,101.0,100.0,13.4,1505.2,328.7,-0.7,1.8,2470.531,13.28,0.056,235.8
2021-05-12T06:58:03,42.805,6.029,-0.036,-0.026,-0.008,101.0,101.0,100.0,13.4,1505.2,326.1,-0.8,1.8,2470.57,13.28,0.044,234.2
2021-05-12T07:04:03,42.805,6.029,-0.043,-0.048,-0.045,102.0,99.0,101.0,13.3,1505.2,323.9,-0.8,1.8,2470.546,13.28,0.064,221.9
2021-05-12T07:07:03,42.805,6.029,-0.041,-0.046,-0.024,102.0,100.0,100.0,13.4,1505.2,327.5,-0.7,1.8,2470.523,13.28,0.061,221.7
2021-05-12T07:10:03,42.805,6.029,-0.03,-0.022,-0.031,100.0,101.0,99.0,13.3,1505.2,325.1,-0.7,1.9,2470.564,13.28,0.037,233.7
2021-05-12T07:13:03,42.805,6.029,-0.058,-0.03,-0.051,100.0,100.0,100.0,13.4,1505.2,329.4,-0.8,1.8,2470.533,13.28,0.065,242.6
2021-05-12T07:16:03,42.805,6.029,-0.033,-0.028,0.004,100.0,100.0,101.0,13.4,1505.2,327.9,-0.7,1.8,2470.489,13.28,0.043,229.7
2021-05-12T07:19:03,42.805,6.029,-0.042,-0.007,0.0,101.0,100.0,100.0,13.4,1505.2,329.1,-0.8,1.8,2470.573,13.28,0.042,260.5
2021-05-12T07:22:03,42.805,6.029,-0.028,-0.029,-0.029,101.0,100.0,100.0,13.3,1505.2,326.9,-0.7,1.9,2470.553,13.28,0.04,224.0
2021-05-12T07:25:03,42.805,6.029,-0.064,-0.012,-0.009,101.0,99.0,101.0,13.4,1505.2,327.1,-0.8,1.8,2470.557,13.28,0.065,259.4
2021-05-12T07:28:03,42.805,6.029,-0.049,-0.025,0.0,101.0,100.0,100.0,13.4,1505.2,328.8,-0.7,1.8,2470.547,13.28,0.055,243.0
2021-05-12T07:31:03,42.805,6.029,-0.052,-0.033,-0.07,101.0,101.0,100.0,13.4,1505.2,327.3,-0.7,1.8,2470.551,13.28,0.061,237.6
2021-05-12T07:34:03,42.805,6.029,-0.047,-0.024,-0.037,100.0,101.0,101.0,13.3,1505.2,329.3,-0.7,1.8,2470.511,13.28,0.052,243.0
2021-05-12T07:37:03,42.805,6.029,-0.053,-0.027,-0.008,102.0,100.0,99.0,13.3,1505.2,328.3,-0.7,1.8,2470.526,13.28,0.059,243.0
2021-05-12T07:40:03,42.805,6.029,-0.074,-0.015,-0.018,101.0,101.0,101.0,13.4,1505.2,327.1,-0.8,1.8,2470.532,13.28,0.075,258.5
2021-05-12T07:43:03,42.805,6.029,-0.058,-0.043,-0.021,100.0,100.0,101.0,13.4,1505.2,326.5,-0.8,1.8,2470.521,13.28,0.072,233.4
2021-05-12T07:46:03,42.805,6.029,-0.038,-0.054,-0.063,101.0,100.0,100.0,13.4,1505.2,325.4,-0.7,1.8,2470.559,13.28,0.066,215.1
2021-05-12T07:49:03,42.805,6.029,-0.042,-0.039,-0.037,102.0,101.0,100.0,13.4,1505.2,324.8,-0.7,1.8,2470.523,13.28,0.057,227.1
2021-05-12T07:52:03,42.805,6.029,-0.058,-0.03,-0.023,100.0,101.0,101.0,13.4,1505.2,325.5,-0.7,1.8,2470.511,13.28,0.065,242.6
2021-05-12T07:55:03,42.805,6.029,-0.023,-0.029,-0.004,101.0,101.0,101.0,13.3,1505.2,328.1,-0.8,1.8,2470.534,13.28,0.037,218.4
2021-05-12T07:58:03,42.805,6.029,-0.081,-0.037,-0.029,102.0,100.0,99.0,13.3,1505.2,327.2,-0.7,1.8,2470.556,13.28,0.089,245.5
2021-05-12T08:04:03,42.805,6.029,-0.047,-0.038,-0.027,101.0,101.0,100.0,13.4,1505.2,326.0,-0.8,1.9,2470.547,13.28,0.06,231.0
2021-05-12T08:07:03,42.805,6.029,-0.044,-0.041,-0.018,100.0,101.0,100.0,13.4,1505.2,326.3,-0.8,1.8,2470.504,13.28,0.06,227.0
2021-05-12T08:10:03,42.805,6.029,-0.055,-0.029,-0.029,101.0,102.0,100.0,13.4,1505.2,329.4,-0.8,1.8,2470.508,13.28,0.062,242.2
2021-05-12T08:13:03,42.805,6.029,-0.043,-0.039,-0.025,101.0,101.0,100.0,13.4,1505.2,327.5,-0.8,1.8,2470.531,13.28,0.058,227.8
2021-05-12T08:16:03,42.805,6.029,-0.055,-0.044,-0.025,101.0,101.0,100.0,13.3,1505.2,325.1,-0.8,1.8,2470.533,13.28,0.07,231.3
2021-05-12T08:19:03,42.805,6.029,-0.041,-0.022,-0.015,101.0,101.0,100.0,13.3,1505.2,325.6,-0.8,1.8,2470.521,13.28,0.046,241.8
2021-05-12T08:22:03,42.805,6.029,-0.037,-0.023,0.004,101.0,102.0,100.0,13.3,1505.2,329.2,-0.8,1.8,2470.485,13.28,0.043,238.1
2021-05-12T08:25:03,42.805,6.029,-0.042,-0.038,-0.038,99.0,102.0,100.0,13.4,1505.2,328.1,-0.7,1.9,2470.505,13.28,0.056,227.9
2021-05-12T08:28:03,42.805,6.029,-0.052,-0.034,0.012,102.0,101.0,100.0,13.3,1505.2,329.3,-0.7,1.8,2470.538,13.28,0.062,236.8
2021-05-12T08:31:03,42.805,6.029,-0.017,-0.037,-0.034,101.0,102.0,100.0,13.4,1505.2,324.6,-0.7,1.8,2470.506,13.28,0.04,204.7
2021-05-12T08:34:03,42.805,6.029,-0.065,-0.041,-0.015,99.0,103.0,101.0,13.4,1505.2,326.0,-0.7,1.9,2470.512,13.28,0.076,237.8
2021-05-12T08:37:03,42.805,6.029,-0.046,-0.043,-0.01,101.0,101.0,99.0,13.4,1505.2,327.0,-0.7,1.8,2470.503,13.28,0.062,226.9
2021-05-12T08:40:03,42.805,6.029,-0.028,-0.049,-0.004,101.0,100.0,100.0,13.3,1505.2,325.9,-0.8,1.8,2470.536,13.28,0.056,209.7
2021-05-12T08:43:03,42.805,6.029,-0.044,-0.024,0.021,101.0,102.0,101.0,13.4,1505.2,323.8,-0.7,1.8,2470.508,13.28,0.05,241.4
2021-05-12T08:46:03,42.805,6.029,-0.058,-0.041,-0.02,101.0,101.0,100.0,13.4,1505.2,324.4,-0.8,1.8,2470.496,13.28,0.071,234.7
2021-05-12T08:49:03,42.805,6.029,-0.039,-0.049,-0.019,102.0,102.0,100.0,13.4,1505.2,329.5,-0.7,1.9,2470.472,13.28,0.062,218.5
2021-05-12T08:52:03,42.805,6.029,-0.052,-0.053,-0.009,100.0,102.0,100.0,13.3,1505.2,326.8,-0.7,1.8,2470.485,13.28,0.074,224.5
2021-05-12T08:55:03,42.805,6.029,-0.037,-0.058,-0.03,101.0,100.0,101.0,13.4,1505.2,325.2,-0.7,1.8,2470.526,13.28,0.068,212.5
2021-05-12T08:58:03,42.805,6.029,-0.035,-0.047,0.0,101.0,100.0,101.0,13.4,1505.2,328.9,-0.7,1.8,2470.473,13.28,0.058,216.7
2021-05-12T09:04:03,42.805,6.029,-0.023,-0.044,-0.007,101.0,100.0,100.0,13.4,1505.2,329.3,-0.8,1.9,2470.497,13.28,0.049,207.6
2021-05-12T09:07:03,42.805,6.029,-0.039,-0.045,0.001,101.0,101.0,101.0,13.4,1505.2,324.3,-0.7,1.9,2470.486,13.28,0.059,220.9
2021-05-12T09:10:03,42.805,6.029,-0.019,-0.046,-0.025,101.0,100.0,100.0,13.4,1505.2,326.3,-0.8,1.8,2470.498,13.28,0.049,202.4
2021-05-12T09:13:03,42.805,6.029,-0.061,-0.029,-0.021,101.0,103.0,101.0,13.3,1505.2,328.8,-0.7,1.8,2470.513,13.28,0.067,244.6
2021-05-12T09:16:03,42.805,6.029,-0.035,-0.062,-0.026,101.0,101.0,101.0,13.3,1505.2,327.7,-0.8,1.8,2470.477,13.28,0.071,209.4
2021-05-12T09:19:03,42.805,6.029,-0.039,-0.043,-0.018,100.0,102.0,100.0,13.4,1505.2,326.1,-0.8,1.8,2470.503,13.28,0.058,222.2
2021-05-12T09:22:03,42.805,6.029,-0.071,-0.033,-0.017,101.0,101.0,100.0,13.4,1505.2,326.6,-0.8,1.8,2470.482,13.28,0.078,245.1
2021-05-12T09:25:03,42.805,6.029,-0.047,-0.057,-0.029,101.0,102.0,99.0,13.4,1505.2,327.4,-0.8,1.8,2470.486,13.28,0.073,219.5
2021-05-12T09:28:03,42.805,6.029,-0.044,-0.031,-0.044,100.0,100.0,99.0,13.4,1505.2,328.1,-0.8,1.8,2470.515,13.28,0.053,234.8
2021-05-12T09:31:03,42.805,6.029,-0.068,-0.021,0.003,100.0,102.0,100.0,13.4,1505.2,327.5,-0.8,1.8,2470.522,13.28,0.071,252.8
2021-05-12T09:34:03,42.805,6.029,-0.041,-0.045,-0.019,102.0,101.0,101.0,13.3,1505.2,328.8,-0.8,1.9,2470.479,13.28,0.06,222.3
2021-05-12T09:37:03,42.805,6.029,-0.031,-0.046,-0.068,101.0,100.0,99.0,13.4,1505.2,324.2,-0.7,1.8,2470.445,13.28,0.055,214.0
2021-05-12T09:40:03,42.805,6.029,-0.046,-0.052,-0.021,100.0,102.0,100.0,13.4,1505.2,327.9,-0.8,1.8,2470.494,13.28,0.069,221.5
2021-05-12T09:43:03,42.805,6.029,-0.027,-0.046,-0.03,101.0,102.0,101.0,13.3,1505.2,325.4,-0.7,1.8,2470.451,13.28,0.053,210.4
2021-05-12T09:46:03,42.805,6.029,-0.018,-0.065,-0.046,101.0,100.0,101.0,13.4,1505.2,327.1,-0.7,1.9,2470.451,13.28,0.067,195.5
2021-05-12T09:49:03,42.805,6.029,-0.064,-0.05,-0.027,100.0,102.0,101.0,13.3,1505.2,325.5,-0.7,1.8,2470.45,13.28,0.081,232.0